Flag for India Weather past 2 weeks in Karaikudi, Tamil Nadu, India

Now
104 °F

Passing clouds.


Feels Like: 109 °F
Forecast: 77 / 99 °F
Wind: 6 mph from East

Location: Tiruchchirapalli


UV Index: 10 (Very high)

Visibility: 4 mi


Pressure: 29.74 "Hg

Humidity: 29%

Dew point: 66 °F

Location of KaraikudiLocation

Historic Weather in Karaikudi

°F

Karaikudi temperature yesterday

Maximum temperature yesterday: 106 °F (at 3:40 PM)
Minimum temperature yesterday: 81 °F (at 4:40 AM)
Average temperature yesterday: 92 °F

Past Weeks' High & Low Weather Summary

 TemperatureHumidityPressure
High106 °F (Apr 18, 3:40 PM)89% (Apr 6, 4:40 AM)29.98 "Hg (Apr 6, 4:40 AM)
Low79 °F (Apr 5, 3:40 AM)25% (Apr 18, 3:40 PM)29.68 "Hg (Apr 12, 3:40 PM)
Average90 °F57%29.83 "Hg
* Reported Apr 4 2:40 PM — Apr 19 2:40 PM, Karaikudi, Weather by CustomWeather, © 2014

Note: Actual official high and low records may vary slightly from our data, if they occured in-between our weather recording intervals... More about our weather records

Advertising

Historic Weather Conditions — Data for Previous 24 hours

 ConditionsComfort  
Time TempWeatherWind HumidityBarometerVisibility
2:40 PM
Apr 19
104 °FPassing clouds.6 mph29%29.74 "Hg4 mi
1:40 PM102 °FHaze.5 mph35%29.77 "Hg3 mi
12:40 PM100 °FHaze.2 mph40%29.80 "Hg3 mi
10:40 AM93 °FHaze.5 mph56%29.86 "Hg2 mi
9:40 AM90 °FHaze.2 mph67%29.89 "Hg2 mi
8:40 AM86 °FHaze.No wind75%29.89 "Hg2 mi
7:40 AM84 °FHaze.2 mph74%29.86 "Hg2 mi
6:40 AM82 °FHaze.2 mph79%29.83 "Hg2 mi
5:40 AM82 °FHaze.No wind79%29.83 "Hg2 mi
4:40 AM82 °FPassing clouds.5 mph79%29.80 "Hg3 mi
3:40 AM84 °FPassing clouds.3 mph74%29.80 "Hg3 mi
2:40 AM84 °FPassing clouds.2 mph74%29.83 "Hg3 mi
1:40 AM84 °FPassing clouds.No wind74%29.83 "Hg3 mi
11:40 PM
Apr 18
86 °FPassing clouds.2 mph70%29.86 "Hg4 mi
10:40 PM88 °FPassing clouds.6 mph62%29.86 "Hg4 mi
9:40 PM88 °FPassing clouds.8 mph62%29.86 "Hg4 mi
8:40 PM90 °FPassing clouds.12 mph55%29.83 "Hg4 mi
7:40 PM97 °FPassing clouds.15 mph32%29.80 "Hg4 mi
6:40 PM100 °FPassing clouds.14 mph25%29.77 "Hg4 mi
5:40 PM102 °FPassing clouds.9 mph26%29.71 "Hg5 mi
4:40 PM104 °FPassing clouds.8 mph29%29.71 "Hg5 mi
Weather by CustomWeather, © 2014

See weather overview